Flag for U.S.A. Weather past 2 weeks in Ann Arbor, Michigan, U.S.A.

Now
70 °F

Overcast.


Feels Like: 75 °F
Forecast: 60 / 76 °F
Wind: 12 mph from North

Location: Ann Arbor Municipal Airport

Current Time: Jul 23, 2014 at 1:09:55 PM

Latest Report: Jul 23, 2014 at 11:53 AM


Visibility: 10 mi

Pressure: 30.02 "Hg

Humidity: 64%

Dew point: 57 °F

Location of Ann ArborLocation

Historic Weather in Ann Arbor — Graph

°F

Ann Arbor temperature yesterday

Maximum temperature yesterday: 85 °F (at 12:53 PM)
Minimum temperature yesterday: 56 °F (at 4:53 AM)
Average temperature yesterday: 71 °F

Past Weeks' High & Low Weather Summary

 TemperatureHumidityPressure
High85 °F (Jul 22, 12:53 PM)97% (Jul 20, 1:53 AM)30.24 "Hg (Jul 20, 1:53 AM)
Low47 °F (Jul 18, 5:53 AM)36% (Jul 17, 4:53 PM)29.59 "Hg (Jul 8, 12:53 PM)
Average67 °F70%30.01 "Hg
* Reported Jul 8 11:53 AM — Jul 23 11:53 AM, Ann Arbor, Weather by CustomWeather, © 2014

Note: Actual official high and low records may vary slightly from our data, if they occured in-between our weather recording intervals... More about our weather records

Advertising

Ann Arbor weather history for previous 24 hours

 ConditionsComfort  
Time TempWeatherWind HumidityBarometerVisibility
11:53 AM
Jul 23
70 °FOvercast.12 mph64%30.02 "Hg10 mi
10:53 AM69 °FOvercast.12 mph68%30.01 "Hg10 mi
9:53 AM68 °FOvercast.12 mph70%30.00 "Hg10 mi
8:53 AM67 °FOvercast.13 mph76%29.99 "Hg10 mi
7:53 AM67 °FOvercast.14 mph76%29.99 "Hg10 mi
6:53 AM71 °FOvercast.10 mph78%29.97 "Hg10 mi
5:53 AM72 °FOvercast.7 mph76%29.94 "Hg10 mi
5:04 AM73 °FMostly cloudy.9 mph71%29.95 "Hg10 mi
4:53 AM73 °FLight rain. Partly cloudy.9 mph71%29.93 "Hg10 mi
1:53 AM76 °FPassing clouds.5 mph74%29.91 "Hg10 mi
12:53 AM78 °FMostly cloudy.6 mph66%29.93 "Hg10 mi
11:53 PM
Jul 22
78 °FOvercast.7 mph64%29.94 "Hg10 mi
10:53 PM78 °FClear.6 mph64%29.93 "Hg10 mi
9:53 PM78 °FPassing clouds.6 mph64%29.95 "Hg10 mi
8:53 PM81 °FSunny.7 mph58%29.94 "Hg10 mi
7:53 PM84 °FSunny.7 mph55%29.93 "Hg10 mi
Weather by CustomWeather, © 2014

See weather overviewHow to use our weather pages